sat.trackr.live / text

‹ back to catalog

STARLINK-33879

NORAD 63634 · 2025-083A

PAYLOAD ACTIVE UNKNOWN

§ Identity

Operator
Country
US
Launch date
2025-04-25
Launch site
AFETR
Launch vehicle
Mass (kg)
RCS (m²)

Purposes: comms

External: N2YO · Heavens-Above · Gunter

§ Orbital elements

Epoch: 2026-09-20T13:06:55.506528Z

Period
94.27 min
Inclination
43.0051°
Eccentricity
0.0001822
Mean motion
15.27596599 rev/d
Perigee alt
481.7 km
Apogee alt
484.2 km
Semi-major
6,861.1 km
B*
5.0291e-4
RAAN
345.1101°
Arg perigee
283.9374°
Mean anomaly
76.1275°
Rev number
7,986

§ Raw data

STARLINK-338791 63634U 25083A   26263.54647577  .00013610  00000+0  50291-3 0  99942 63634  43.0051 345.1101 0001822 283.9374  76.1275 15.27596599 79867

JSON: /api/v1/satellites/63634 · /tle

For live sub-satellite position, see the globe view (requires WebGL).

§ Visibility from observer

Set your observer location to see the next 7 days of passes ≥ 10°. The values pass through the URL so the page stays shareable.

No JS? Fill the form by hand. The geolocation button needs JavaScript.